| time (UTC) | temp C | wind direction | speed KPH | gust KPH | rain 1hr cm | rain 24hr cm | rain mn cm | humidity % | barometer mb |
| 20260503212508 | 17 | 211 | 9.7 | 12.9 | 0.00 | 0.00 | 0.00 | 81 | 1016.9 |
| 20260503212012 | 17 | 153 | 11.3 | 14.5 | 0.00 | 0.00 | 0.00 | 81 | 1016.9 |
| 20260503211511 | 17 | 162 | 11.3 | 14.5 | 0.00 | 0.00 | 0.00 | 81 | 1016.6 |
| 20260503211012 | 17 | 193 | 3.2 | 8.0 | 0.00 | 0.00 | 0.00 | 81 | 1016.6 |
| 20260503210508 | 17 | 141 | 6.4 | 8.0 | 0.00 | 0.00 | 0.00 | 81 | 1016.9 |
| 20260503210030 | 17 | 203 | 11.3 | 17.7 | 0.00 | 0.00 | 0.00 | 81 | 1016.6 |
| 20260503205509 | 17 | 175 | 3.2 | 4.8 | 0.00 | 0.00 | 0.00 | 81 | 1016.9 |
| 20260503205012 | 17 | 253 | 6.4 | 11.3 | 0.00 | 0.00 | 0.00 | 81 | 1016.9 |
| 20260503204511 | 17 | 180 | 6.4 | 9.7 | 0.00 | 0.00 | 0.00 | 81 | 1016.9 |
| 20260503204012 | 17 | 103 | 3.2 | 4.8 | 0.00 | 0.00 | 0.00 | 81 | 1017.3 |
| 20260503203509 | 17 | 122 | 1.6 | 3.2 | 0.00 | 0.00 | 0.00 | 80 | 1017.3 |
| 20260503203021 | 17 | 165 | 3.2 | 4.8 | 0.00 | 0.00 | 0.00 | 80 | 1017.3 |
| 20260503202509 | 17 | 193 | 6.4 | 9.7 | 0.00 | 0.00 | 0.00 | 80 | 1017.3 |
| 20260503202012 | 17 | 234 | 4.8 | 6.4 | 0.00 | 0.00 | 0.00 | 80 | 1016.9 |
| 20260503201512 | 17 | 281 | 3.2 | 4.8 | 0.00 | 0.00 | 0.00 | 80 | 1017.3 |
| 20260503201012 | 17 | 223 | 11.3 | 14.5 | 0.00 | 0.00 | 0.00 | 81 | 1017.3 |
| 20260503200509 | 17 | 192 | 8.0 | 11.3 | 0.00 | 0.00 | 0.00 | 81 | 1017.3 |
| 20260503200029 | 17 | 126 | 4.8 | 8.0 | 0.00 | 0.00 | 0.00 | 81 | 1017.3 |
| 20260503195509 | 17 | 207 | 3.2 | 4.8 | 0.00 | 0.00 | 0.00 | 81 | 1017.3 |
| 20260503195012 | 17 | 161 | 4.8 | 6.4 | 0.00 | 0.00 | 0.00 | 81 | 1016.9 |
| 20260503194511 | 17 | 220 | 9.7 | 11.3 | 0.00 | 0.00 | 0.00 | 81 | 1016.9 |
| 20260503194012 | 17 | 236 | 9.7 | 9.7 | 0.00 | 0.00 | 0.00 | 81 | 1017.3 |
| 20260503193508 | 17 | 201 | 4.8 | 6.4 | 0.00 | 0.00 | 0.00 | 81 | 1016.9 |
| 20260503193020 | 17 | 189 | 6.4 | 8.0 | 0.00 | 0.00 | 0.00 | 81 | 1016.9 |
| 20260503192509 | 17 | 178 | 3.2 | 3.2 | 0.00 | 0.00 | 0.00 | 81 | 1016.9 |
| 20260503192012 | 17 | 199 | 0.0 | 0.0 | 0.00 | 0.00 | 0.00 | 81 | 1016.9 |
| 20260503191512 | 17 | 236 | 0.0 | 1.6 | 0.00 | 0.00 | 0.00 | 81 | 1016.9 |
| 20260503191012 | 17 | 118 | 6.4 | 6.4 | 0.00 | 0.00 | 0.00 | 81 | 1016.6 |
| 20260503190508 | 17 | 133 | 3.2 | 4.8 | 0.00 | 0.00 | 0.00 | 81 | 1016.6 |
| 20260503190030 | 17 | 299 | 1.6 | 1.6 | 0.00 | 0.00 | 0.00 | 81 | 1016.9 |
| 20260503185509 | 17 | 203 | 1.6 | 1.6 | 0.00 | 0.00 | 0.00 | 81 | 1016.9 |
| 20260503185012 | 17 | 139 | 0.0 | 1.6 | 0.00 | 0.00 | 0.00 | 81 | 1016.6 |
| 20260503184512 | 17 | 139 | 3.2 | 3.2 | 0.00 | 0.00 | 0.00 | 80 | 1016.6 |
| 20260503184012 | 17 | 37 | 4.8 | 6.4 | 0.00 | 0.00 | 0.00 | 80 | 1016.9 |
| 20260503183509 | 17 | 80 | 1.6 | 3.2 | 0.00 | 0.00 | 0.00 | 79 | 1016.6 |
| 20260503183022 | 17 | 153 | 0.0 | 3.2 | 0.00 | 0.00 | 0.00 | 79 | 1016.6 |
| 20260503182509 | 17 | 159 | 3.2 | 3.2 | 0.00 | 0.00 | 0.00 | 78 | 1016.6 |
| 20260503182012 | 17 | 181 | 3.2 | 4.8 | 0.00 | 0.00 | 0.00 | 78 | 1016.3 |
| 20260503181512 | 17 | 126 | 3.2 | 3.2 | 0.00 | 0.00 | 0.00 | 78 | 1016.6 |
| 20260503181013 | 17 | 186 | 0.0 | 1.6 | 0.00 | 0.00 | 0.00 | 77 | 1016.3 |
| 20260503180509 | 17 | 183 | 1.6 | 3.2 | 0.00 | 0.00 | 0.00 | 77 | 1016.3 |
| 20260503180028 | 17 | 101 | 6.4 | 6.4 | 0.00 | 0.00 | 0.00 | 76 | 1016.6 |
| 20260503175509 | 17 | 178 | 8.0 | 9.7 | 0.00 | 0.00 | 0.00 | 76 | 1016.3 |
| 20260503175012 | 17 | 153 | 3.2 | 4.8 | 0.00 | 0.00 | 0.00 | 75 | 1016.3 |
| 20260503174511 | 17 | 182 | 3.2 | 4.8 | 0.00 | 0.00 | 0.00 | 75 | 1016.6 |
| 20260503174013 | 17 | 163 | 1.6 | 3.2 | 0.00 | 0.00 | 0.00 | 74 | 1016.6 |
| 20260503173508 | 17 | 191 | 4.8 | 6.4 | 0.00 | 0.00 | 0.00 | 73 | 1016.3 |
| 20260503173022 | 17 | 193 | 3.2 | 4.8 | 0.00 | 0.00 | 0.00 | 72 | 1016.3 |
| 20260503172508 | 17 | 152 | 9.7 | 11.3 | 0.00 | 0.00 | 0.00 | 72 | 1016.3 |
| 20260503172012 | 17 | 93 | 3.2 | 4.8 | 0.00 | 0.00 | 0.00 | 72 | 1016.3 |
| 20260503171512 | 18 | 148 | 1.6 | 3.2 | 0.00 | 0.00 | 0.00 | 70 | 1016.3 |
| 20260503171013 | 18 | 149 | 6.4 | 8.0 | 0.00 | 0.00 | 0.00 | 69 | 1016.3 |
| 20260503170508 | 18 | 166 | 3.2 | 6.4 | 0.00 | 0.00 | 0.00 | 70 | 1016.6 |
| 20260503151012 | 21 | 184 | 11.3 | 14.5 | 0.00 | 0.00 | 0.00 | 58 | 1016.6 |
| 20260503150509 | 21 | 327 | 11.3 | 14.5 | 0.00 | 0.00 | 0.00 | 59 | 1016.9 |
| 20260503131012 | 22 | 142 | 8.0 | 12.9 | 0.00 | 0.00 | 0.00 | 58 | 1018.0 |
| 20260503130508 | 21 | 184 | 14.5 | 17.7 | 0.00 | 0.00 | 0.00 | 55 | 1018.0 |
| 20260503110508 | 20 | 102 | 14.5 | 17.7 | 0.00 | 0.00 | 0.00 | 67 | 1018.6 |
| 20260503090509 | 20 | 145 | 9.7 | 17.7 | 0.00 | 0.00 | 0.00 | 67 | 1019.3 |
| 20260503081512 | 17 | 253 | 4.8 | 6.4 | 0.00 | 0.00 | 0.00 | 65 | 1019.0 |
| 20260503081012 | 17 | 144 | 8.0 | 9.7 | 0.00 | 0.00 | 0.00 | 70 | 1019.0 |
| 20260503080509 | 17 | 192 | 6.4 | 8.0 | 0.00 | 0.00 | 0.00 | 71 | 1019.0 |
| 20260503072509 | 18 | 155 | 8.0 | 11.3 | 0.00 | 0.00 | 0.00 | 75 | 1018.6 |
| 20260503072013 | 18 | 162 | 9.7 | 11.3 | 0.00 | 0.00 | 0.00 | 74 | 1019.0 |
| 20260503071512 | 18 | 157 | 11.3 | 11.3 | 0.00 | 0.00 | 0.00 | 73 | 1018.6 |
| 20260503071012 | 18 | 160 | 4.8 | 8.0 | 0.00 | 0.00 | 0.00 | 70 | 1018.6 |
| 20260503070508 | 18 | 158 | 4.8 | 6.4 | 0.00 | 0.00 | 0.00 | 72 | 1019.0 |
| 20260503055011 | 17 | 122 | 3.2 | 3.2 | 0.00 | 0.00 | 0.00 | 73 | 1018.6 |
| 20260503054511 | 17 | 143 | 1.6 | 3.2 | 0.00 | 0.00 | 0.00 | 70 | 1019.0 |
| 20260503054012 | 17 | 123 | 1.6 | 1.6 | 0.00 | 0.00 | 0.00 | 67 | 1019.0 |
| 20260503053508 | 17 | 222 | 0.0 | 0.0 | 0.00 | 0.00 | 0.00 | 69 | 1018.6 |
| 20260503053023 | 17 | 257 | 0.0 | 1.6 | 0.00 | 0.00 | 0.00 | 71 | 1019.0 |
| 20260503052508 | 16 | 124 | 0.0 | 1.6 | 0.00 | 0.00 | 0.00 | 72 | 1018.6 |
| 20260503052012 | 15 | 139 | 1.6 | 3.2 | 0.00 | 0.00 | 0.00 | 74 | 1019.0 |
| 20260503051512 | 13 | 211 | 0.0 | 0.0 | 0.00 | 0.00 | 0.00 | 75 | 1018.6 |
| 20260503051012 | 13 | 223 | 0.0 | 0.0 | 0.00 | 0.00 | 0.00 | 75 | 1018.6 |
| 20260503050509 | 13 | 202 | 0.0 | 0.0 | 0.00 | 0.00 | 0.00 | 76 | 1018.6 |
| 20260503050031 | 12 | 115 | 0.0 | 1.6 | 0.00 | 0.00 | 0.00 | 76 | 1019.0 |
| 20260503045511 | 12 | 216 | 0.0 | 0.0 | 0.00 | 0.00 | 0.00 | 77 | 1019.0 |
| 20260503045012 | 12 | 221 | 0.0 | 0.0 | 0.00 | 0.00 | 0.00 | 78 | 1019.0 |
| 20260503044511 | 12 | 260 | 0.0 | 0.0 | 0.00 | 0.00 | 0.00 | 78 | 1018.6 |
| 20260503044012 | 12 | 250 | 0.0 | 0.0 | 0.00 | 0.00 | 0.00 | 78 | 1019.0 |
| 20260503043508 | 11 | 277 | 1.6 | 3.2 | 0.00 | 0.00 | 0.00 | 78 | 1019.0 |
| 20260503043020 | 11 | 194 | 1.6 | 1.6 | 0.00 | 0.00 | 0.00 | 78 | 1019.0 |
| 20260503042508 | 11 | 183 | 1.6 | 1.6 | 0.00 | 0.00 | 0.00 | 78 | 1018.6 |
| 20260503042012 | 11 | 241 | 0.0 | 1.6 | 0.00 | 0.00 | 0.00 | 78 | 1018.6 |
| 20260503041512 | 11 | 189 | 3.2 | 3.2 | 0.00 | 0.00 | 0.00 | 78 | 1019.0 |
| 20260503041012 | 11 | 175 | 1.6 | 3.2 | 0.00 | 0.00 | 0.00 | 78 | 1018.6 |
| 20260503040508 | 11 | 191 | 1.6 | 1.6 | 0.00 | 0.00 | 0.00 | 78 | 1019.0 |
| 20260503040031 | 11 | 112 | 0.0 | 1.6 | 0.00 | 0.00 | 0.00 | 78 | 1018.6 |
| 20260503035509 | 10 | 94 | 1.6 | 1.6 | 0.00 | 0.00 | 0.00 | 78 | 1018.6 |
| 20260503035012 | 10 | 199 | 0.0 | 0.0 | 0.00 | 0.00 | 0.00 | 78 | 1019.0 |
| 20260503034511 | 10 | 181 | 1.6 | 1.6 | 0.00 | 0.00 | 0.00 | 78 | 1019.0 |
| 20260503034013 | 10 | 175 | 0.0 | 1.6 | 0.00 | 0.00 | 0.00 | 78 | 1018.6 |
| 20260503033508 | 10 | 202 | 0.0 | 0.0 | 0.00 | 0.00 | 0.00 | 77 | 1018.6 |
| 20260503033021 | 10 | 230 | 1.6 | 3.2 | 0.00 | 0.00 | 0.00 | 77 | 1019.0 |
| 20260503032509 | 10 | 178 | 0.0 | 0.0 | 0.00 | 0.00 | 0.00 | 77 | 1018.6 |
| 20260503032012 | 10 | 161 | 0.0 | 0.0 | 0.00 | 0.00 | 0.00 | 77 | 1018.6 |
| 20260503031512 | 10 | 208 | 0.0 | 0.0 | 0.00 | 0.00 | 0.00 | 77 | 1018.6 |
| 20260503031013 | 10 | 185 | 0.0 | 0.0 | 0.00 | 0.00 | 0.00 | 77 | 1018.6 |
| 20260503030508 | 10 | 251 | 3.2 | 3.2 | 0.00 | 0.00 | 0.00 | 77 | 1018.6 |
| 20260503030030 | 10 | 143 | 0.0 | 0.0 | 0.00 | 0.00 | 0.00 | 77 | 1018.6 |
| 20260503025509 | 10 | 227 | 3.2 | 3.2 | 0.00 | 0.00 | 0.00 | 77 | 1019.0 |
| 20260503025012 | 10 | 200 | 0.0 | 0.0 | 0.00 | 0.00 | 0.00 | 77 | 1018.3 |
| 20260503024512 | 10 | 173 | 0.0 | 1.6 | 0.00 | 0.00 | 0.00 | 77 | 1018.6 |
| 20260503024012 | 10 | 218 | 0.0 | 1.6 | 0.00 | 0.00 | 0.00 | 77 | 1018.6 |
| 20260503023508 | 10 | 143 | 0.0 | 0.0 | 0.00 | 0.00 | 0.00 | 77 | 1018.6 |
| 20260503023020 | 10 | 188 | 0.0 | 0.0 | 0.00 | 0.00 | 0.00 | 77 | 1018.6 |
| 20260503022509 | 10 | 225 | 1.6 | 3.2 | 0.00 | 0.00 | 0.00 | 77 | 1018.6 |
| 20260503022012 | 10 | 241 | 1.6 | 3.2 | 0.00 | 0.00 | 0.00 | 77 | 1018.6 |
| 20260503021512 | 10 | 213 | 0.0 | 0.0 | 0.00 | 0.00 | 0.00 | 77 | 1018.6 |
| 20260503021012 | 11 | 210 | 0.0 | 0.0 | 0.00 | 0.00 | 0.00 | 77 | 1018.6 |
| 20260503020509 | 10 | 228 | 0.0 | 0.0 | 0.00 | 0.00 | 0.00 | 77 | 1018.6 |
| 20260503020030 | 10 | 218 | 0.0 | 0.0 | 0.00 | 0.00 | 0.00 | 77 | 1018.6 |
| 20260503015509 | 11 | 225 | 0.0 | 0.0 | 0.00 | 0.00 | 0.00 | 76 | 1018.6 |
| 20260503015012 | 11 | 236 | 0.0 | 0.0 | 0.00 | 0.00 | 0.00 | 76 | 1019.0 |
| 20260503014512 | 11 | 207 | 1.6 | 3.2 | 0.00 | 0.00 | 0.00 | 76 | 1018.6 |
| 20260503014012 | 11 | 236 | 0.0 | 0.0 | 0.00 | 0.00 | 0.00 | 76 | 1019.0 |
| 20260503013508 | 11 | 200 | 0.0 | 0.0 | 0.00 | 0.00 | 0.00 | 76 | 1019.0 |
| 20260503013022 | 11 | 248 | 0.0 | 0.0 | 0.00 | 0.00 | 0.00 | 76 | 1018.6 |
| 20260503012509 | 11 | 190 | 1.6 | 1.6 | 0.00 | 0.00 | 0.00 | 75 | 1019.0 |
| 20260503012012 | 11 | 123 | 0.0 | 0.0 | 0.00 | 0.00 | 0.00 | 75 | 1019.0 |
| 20260503011512 | 11 | 217 | 1.6 | 1.6 | 0.00 | 0.00 | 0.00 | 75 | 1018.6 |
| 20260503011012 | 11 | 223 | 1.6 | 3.2 | 0.00 | 0.00 | 0.00 | 75 | 1019.0 |
| 20260503010509 | 11 | 215 | 1.6 | 3.2 | 0.00 | 0.00 | 0.00 | 74 | 1018.6 |
| 20260503010031 | 11 | 189 | 1.6 | 3.2 | 0.00 | 0.00 | 0.00 | 74 | 1019.0 |
| 20260503005509 | 11 | 204 | 0.0 | 0.0 | 0.00 | 0.00 | 0.00 | 74 | 1019.0 |
| 20260503005011 | 11 | 175 | 0.0 | 0.0 | 0.00 | 0.00 | 0.00 | 73 | 1019.0 |
| 20260503004512 | 11 | 184 | 0.0 | 0.0 | 0.00 | 0.00 | 0.00 | 73 | 1019.0 |
| 20260503004011 | 11 | 245 | 3.2 | 3.2 | 0.00 | 0.00 | 0.00 | 74 | 1019.0 |
| 20260503003508 | 11 | 210 | 0.0 | 0.0 | 0.00 | 0.00 | 0.00 | 74 | 1019.0 |
| 20260503003021 | 11 | 171 | 0.0 | 0.0 | 0.00 | 0.00 | 0.00 | 74 | 1019.0 |
| 20260503002508 | 11 | 199 | 0.0 | 0.0 | 0.00 | 0.00 | 0.00 | 74 | 1019.3 |
| 20260503002012 | 11 | 207 | 0.0 | 0.0 | 0.00 | 0.00 | 0.00 | 73 | 1019.0 |
| 20260503001512 | 11 | 197 | 1.6 | 3.2 | 0.00 | 0.00 | 0.00 | 74 | 1019.3 |
| 20260503001011 | 11 | 129 | 0.0 | 0.0 | 0.00 | 0.00 | 0.00 | 74 | 1019.3 |
| 20260503000508 | 11 | 216 | 0.0 | 1.6 | 0.00 | 0.00 | 0.00 | 74 | 1019.3 |
| 20260503000033 | 11 | 237 | 1.6 | 3.2 | 0.00 | 0.00 | 0.00 | 74 | 1019.3 |
| 20260502235508 | 11 | 213 | 0.0 | 0.0 | 0.00 | 0.00 | 0.00 | 73 | 1019.3 |
| 20260502235011 | 11 | 196 | 0.0 | 0.0 | 0.00 | 0.00 | 0.00 | 73 | 1019.6 |
| 20260502234512 | 11 | 178 | 1.6 | 1.6 | 0.00 | 0.00 | 0.00 | 72 | 1019.6 |
| 20260502234012 | 11 | 210 | 0.0 | 0.0 | 0.00 | 0.00 | 0.00 | 71 | 1019.6 |
| 20260502233509 | 11 | 147 | 1.6 | 1.6 | 0.00 | 0.00 | 0.00 | 71 | 1019.6 |
| 20260502233021 | 12 | 211 | 0.0 | 0.0 | 0.00 | 0.00 | 0.00 | 70 | 1019.6 |
| 20260502232509 | 12 | 200 | 0.0 | 1.6 | 0.00 | 0.00 | 0.00 | 70 | 1019.6 |
| 20260502232013 | 12 | 94 | 1.6 | 1.6 | 0.00 | 0.00 | 0.00 | 70 | 1019.6 |
| 20260502231511 | 12 | 201 | 1.6 | 1.6 | 0.00 | 0.00 | 0.00 | 70 | 1019.6 |
| 20260502231012 | 12 | 190 | 1.6 | 3.2 | 0.00 | 0.00 | 0.00 | 71 | 1020.0 |
| 20260502230509 | 12 | 186 | 1.6 | 3.2 | 0.00 | 0.00 | 0.00 | 71 | 1020.0 |
| 20260502230030 | 12 | 228 | 0.0 | 0.0 | 0.00 | 0.00 | 0.00 | 70 | 1019.6 |
| 20260502225509 | 12 | 181 | 0.0 | 0.0 | 0.00 | 0.00 | 0.00 | 69 | 1020.0 |
| 20260502225012 | 12 | 263 | 1.6 | 1.6 | 0.00 | 0.00 | 0.00 | 68 | 1019.6 |
| 20260502224512 | 12 | 162 | 1.6 | 3.2 | 0.00 | 0.00 | 0.00 | 67 | 1019.6 |
| 20260502224012 | 12 | 136 | 1.6 | 1.6 | 0.00 | 0.00 | 0.00 | 67 | 1020.0 |
| 20260502223508 | 12 | 203 | 1.6 | 3.2 | 0.00 | 0.00 | 0.00 | 67 | 1020.0 |
| 20260502223020 | 12 | 286 | 3.2 | 4.8 | 0.00 | 0.00 | 0.00 | 68 | 1020.0 |
| 20260502222508 | 12 | 141 | 1.6 | 3.2 | 0.00 | 0.00 | 0.00 | 67 | 1020.0 |
| 20260502222012 | 12 | 142 | 0.0 | 0.0 | 0.00 | 0.00 | 0.00 | 67 | 1020.0 |
| 20260502221511 | 12 | 85 | 0.0 | 0.0 | 0.00 | 0.00 | 0.00 | 68 | 1020.0 |
| 20260502221012 | 12 | 256 | 3.2 | 3.2 | 0.00 | 0.00 | 0.00 | 69 | 1020.0 |
| 20260502220509 | 12 | 147 | 0.0 | 0.0 | 0.00 | 0.00 | 0.00 | 69 | 1020.0 |
| 20260502220033 | 12 | 115 | 0.0 | 1.6 | 0.00 | 0.00 | 0.00 | 70 | 1020.0 |
| 20260502215508 | 12 | 181 | 1.6 | 3.2 | 0.00 | 0.00 | 0.00 | 71 | 1020.0 |
| 20260502215012 | 12 | 106 | 0.0 | 1.6 | 0.00 | 0.00 | 0.00 | 72 | 1020.0 |
| 20260502214511 | 12 | 151 | 1.6 | 1.6 | 0.00 | 0.00 | 0.00 | 74 | 1020.0 |
| 20260502214012 | 12 | 183 | 1.6 | 1.6 | 0.00 | 0.00 | 0.00 | 75 | 1019.6 |
| 20260502213509 | 12 | 205 | 1.6 | 3.2 | 0.00 | 0.00 | 0.00 | 75 | 1019.6 |
| 20260502213021 | 12 | 282 | 1.6 | 1.6 | 0.00 | 0.00 | 0.00 | 75 | 1020.0 |